Weather History for Superior, WI

Change the Weather History Date:

Monday, February 18, 2013

  Actual Average Record
Temperature  
Mean Temperature 20 °F -  
Max Temperature 29 °F 29 °F 38 °F (2014)
Min Temperature 11 °F 12 °F 4 °F (2014)
Degree Days  
Heating Degree Days 45    
Moisture  
Dew Point 17 °F    
Average Humidity 75    
Maximum Humidity 87    
Minimum Humidity 64    
Precipitation  
Precipitation 0.00 in - - ()
Sea Level Pressure  
Sea Level Pressure 29.59 in    
Wind  
Wind Speed 6 mph (NNW)    
Max Wind Speed 21 mph    
Max Gust Speed 30 mph    
Visibility 9 miles    
Events Snow    
Averages and records for this station are not official NWS values.
T = Trace of Precipitation, MM = Missing Value Source: NWS Daily Summary

Daily Weather History Graph

Daily Weather History Graph

Search for Another Location

Airport:

Trip Planner

Search our weather history database for the weather conditions in past years. The results will help you decide how hot, cold, wet, or windy it might be!

Date:

Astronomy

Feb. 18, 2013 Rise Set
Actual Time 7:06 AM CST 5:38 PM CST
Civil Twilight 6:35 AM CST 6:09 PM CST
Nautical Twilight 6:00 AM CST 6:44 PM CST
Astronomical Twilight 5:25 AM CST 7:19 PM CST
Moon 11:13 AM CST (2/18) 1:57 AM CST (2/18)
Length of Visible Light 11h 33m
Length of Day
10h 31m
First Quarter, 58% of the Moon is Illuminated
Feb 18
First Quarter
Feb 25
Full
Mar 4
Last Quarter
Mar 11
New
Mar 19
First Quarter

Hourly Weather History & Observations

Time (CST) Temp. Windchill Dew Point Humidity Pressure Visibility Wind Dir Wind Speed Gust Speed Precip Events Conditions
12:15 AM 24.4 °F 20.1 °F 13.8 °F 64% 29.68 in 10.0 mi South 3.5 mph - N/A   Clear
12:35 AM 24.3 °F 18.4 °F 14.0 °F 65% 29.67 in 10.0 mi South 4.6 mph - N/A   Clear
12:55 AM 24.4 °F 18.6 °F 14.2 °F 65% 29.66 in 10.0 mi SSW 4.6 mph - N/A   Clear
1:15 AM 24.4 °F 18.6 °F 14.4 °F 66% 29.65 in 10.0 mi South 4.6 mph - N/A   Clear
1:35 AM 23.0 °F 17.0 °F 13.8 °F 68% 29.64 in 10.0 mi South 4.6 mph - N/A   Clear
1:55 AM 23.5 °F 17.6 °F 14.2 °F 67% 29.63 in 10.0 mi South 4.6 mph - N/A   Clear
2:15 AM 22.8 °F 18.2 °F 14.0 °F 69% 29.62 in 10.0 mi SE 3.5 mph - N/A   Clear
2:35 AM 22.3 °F - 14.2 °F 71% 29.62 in 10.0 mi Calm Calm - N/A   Clear
2:55 AM 16.9 °F - 11.8 °F 81% 29.61 in 10.0 mi Calm Calm - N/A   Clear
3:15 AM 19.4 °F - 14.2 °F 80% 29.60 in 10.0 mi Calm Calm - N/A   Clear
3:35 AM 17.8 °F 12.5 °F 12.7 °F 81% 29.60 in 10.0 mi ENE 3.5 mph - N/A   Scattered Clouds
3:55 AM 16.0 °F - 12.7 °F 87% 29.59 in 10.0 mi Calm Calm - N/A   Mostly Cloudy
4:15 AM 20.1 °F 12.3 °F 14.4 °F 78% 29.59 in 10.0 mi East 5.8 mph - N/A   Overcast
4:35 AM 22.1 °F 13.7 °F 14.9 °F 74% 29.59 in 10.0 mi East 6.9 mph - N/A   Overcast
4:55 AM 22.8 °F 15.5 °F 15.1 °F 72% 29.57 in 10.0 mi East 5.8 mph - N/A   Overcast
5:15 AM 23.0 °F 15.8 °F 15.4 °F 73% 29.57 in 10.0 mi East 5.8 mph - N/A   Overcast
5:35 AM 23.4 °F 15.2 °F 15.8 °F 73% 29.56 in 10.0 mi East 6.9 mph - N/A   Overcast
5:55 AM 23.9 °F 16.8 °F 16.3 °F 73% 29.56 in 10.0 mi East 5.8 mph - N/A   Overcast
6:15 AM 24.4 °F 17.5 °F 16.5 °F 72% 29.56 in 10.0 mi East 5.8 mph - N/A   Overcast
6:35 AM 24.6 °F 17.7 °F 16.7 °F 72% 29.55 in 10.0 mi East 5.8 mph - N/A   Overcast
6:55 AM 24.6 °F 18.8 °F 16.9 °F 72% 29.55 in 10.0 mi East 4.6 mph - N/A   Overcast
7:15 AM 24.8 °F - 16.7 °F 71% 29.55 in 10.0 mi Calm Calm - N/A   Overcast
7:35 AM 24.6 °F 20.3 °F 17.2 °F 74% 29.54 in 10.0 mi ENE 3.5 mph - N/A   Overcast
7:55 AM 25.2 °F 19.5 °F 17.4 °F 72% 29.54 in 10.0 mi ENE 4.6 mph - N/A   Overcast
8:15 AM 25.3 °F 21.1 °F 17.6 °F 72% 29.53 in 10.0 mi ENE 3.5 mph - N/A   Overcast
8:35 AM 26.2 °F - 18.3 °F 72% 29.53 in 10.0 mi Calm Calm - N/A   Overcast
8:55 AM 26.6 °F 21.2 °F 18.5 °F 71% 29.53 in 10.0 mi East 4.6 mph - N/A   Overcast
9:15 AM 26.6 °F 21.2 °F 19.2 °F 74% 29.53 in 10.0 mi East 4.6 mph - N/A   Overcast
9:35 AM 27.1 °F 21.8 °F 19.4 °F 73% 29.53 in 10.0 mi East 4.6 mph - N/A   Overcast
9:55 AM 27.5 °F 23.6 °F 19.2 °F 71% 29.53 in 10.0 mi East 3.5 mph - N/A   Overcast
10:15 AM 28.0 °F - 19.4 °F 70% 29.52 in 10.0 mi Calm Calm - N/A   Overcast
10:35 AM 28.4 °F - 19.4 °F 69% 29.52 in 10.0 mi Calm Calm - N/A   Overcast
10:55 AM 28.0 °F - 20.1 °F 72% 29.53 in 10.0 mi Calm Calm - N/A   Overcast
11:15 AM 28.4 °F - 20.3 °F 72% 29.53 in 10.0 mi Calm Calm - N/A   Overcast
11:35 AM 28.4 °F - 21.2 °F 74% 29.52 in 10.0 mi Calm Calm - N/A   Overcast
11:55 AM 28.8 °F 23.7 °F 21.4 °F 74% 29.51 in 10.0 mi West 4.6 mph - N/A   Overcast
12:15 PM 28.8 °F 22.6 °F 22.1 °F 76% 29.51 in 10.0 mi West 5.8 mph - N/A   Overcast
12:35 PM 28.8 °F 23.7 °F 22.8 °F 78% 29.52 in 10.0 mi West 4.6 mph - N/A   Overcast
12:55 PM 28.4 °F 23.3 °F 22.8 °F 80% 29.51 in 10.0 mi West 4.6 mph - N/A   Overcast
1:15 PM 28.8 °F 21.7 °F 22.1 °F 76% 29.51 in 10.0 mi West 6.9 mph - N/A   Overcast
1:35 PM 28.9 °F 21.1 °F 22.1 °F 76% 29.51 in 10.0 mi West 8.1 mph - N/A   Overcast
1:55 PM 29.1 °F 20.6 °F 23.4 °F 79% 29.51 in 5.0 mi WNW 9.2 mph - N/A   Haze
2:15 PM 28.8 °F 20.9 °F 24.4 °F 84% 29.52 in 4.0 mi West 8.1 mph - N/A   Haze
2:35 PM 28.8 °F 19.5 °F 24.8 °F 85% 29.52 in 4.0 mi WNW 10.4 mph - N/A   Overcast
2:55 PM 28.9 °F 20.4 °F 24.3 °F 83% 29.53 in 5.0 mi NW 9.2 mph - N/A   Haze
3:15 PM 28.9 °F 20.4 °F 23.9 °F 81% 29.54 in 7.0 mi NW 9.2 mph - N/A   Overcast
3:35 PM 28.8 °F 19.5 °F 23.4 °F 80% 29.55 in 10.0 mi NW 10.4 mph - N/A   Overcast
3:55 PM 28.4 °F 19.7 °F 23.4 °F 81% 29.56 in 10.0 mi NNW 9.2 mph - N/A   Overcast
4:15 PM 28.2 °F 18.9 °F 23.9 °F 84% 29.56 in 4.0 mi NW 10.4 mph - N/A   Overcast
4:35 PM 27.9 °F 19.8 °F 23.9 °F 85% 29.57 in 4.0 mi NW 8.1 mph - N/A   Overcast
4:55 PM 27.9 °F 20.6 °F 23.2 °F 83% 29.58 in 7.0 mi NNW 6.9 mph - N/A   Overcast
5:15 PM 27.5 °F 20.2 °F 23.0 °F 83% 29.59 in 7.0 mi NW 6.9 mph - N/A   Overcast
5:35 PM 27.5 °F 18.6 °F 22.6 °F 82% 29.59 in 7.0 mi NW 9.2 mph - N/A   Overcast
5:55 PM 27.3 °F 19.9 °F 22.5 °F 82% 29.60 in 7.0 mi NW 6.9 mph - N/A   Overcast
6:15 PM 27.1 °F 16.4 °F 22.6 °F 83% 29.60 in 7.0 mi NW 12.7 mph - N/A Snow Light Snow
6:35 PM 24.6 °F 10.9 °F 20.1 °F 83% 29.62 in 4.0 mi WNW 18.4 mph 25.3 mph N/A Snow Light Snow
6:55 PM 23.9 °F 10.8 °F 19.9 °F 85% 29.62 in 3.0 mi WNW 16.1 mph - N/A Snow Light Snow
7:15 PM 23.0 °F 8.3 °F 17.8 °F 80% 29.63 in 4.0 mi NW 19.6 mph 26.5 mph N/A Snow Light Snow
7:35 PM 21.9 °F 6.5 °F 15.6 °F 77% 29.63 in 10.0 mi NW 20.7 mph 25.3 mph N/A Snow Light Snow
7:55 PM 20.8 °F 5.5 °F 14.4 °F 76% 29.64 in 7.0 mi NW 19.6 mph 24.2 mph N/A   Overcast
8:15 PM 20.3 °F 5.2 °F 13.3 °F 74% 29.64 in 10.0 mi NNW 18.4 mph 24.2 mph N/A Snow Light Snow
8:35 PM 18.5 °F 2.9 °F 11.8 °F 75% 29.65 in 10.0 mi NNW 18.4 mph 27.6 mph N/A   Overcast
8:55 PM 16.7 °F 3.2 °F 9.1 °F 72% 29.67 in 7.0 mi NNW 12.7 mph 27.6 mph N/A   Overcast
9:15 PM 16.3 °F 1.6 °F 7.7 °F 69% 29.68 in 10.0 mi NNW 15.0 mph 23.0 mph N/A   Overcast
9:35 PM 15.8 °F 3.4 °F 7.3 °F 69% 29.69 in 10.0 mi NW 10.4 mph 24.2 mph N/A   Overcast
9:55 PM 14.4 °F -0.4 °F 5.9 °F 69% 29.69 in 10.0 mi NNW 13.8 mph 27.6 mph N/A   Overcast
10:15 PM 13.8 °F -2.2 °F 5.0 °F 68% 29.69 in 10.0 mi NW 16.1 mph 27.6 mph N/A   Overcast
10:35 PM 12.7 °F -5.1 °F 4.5 °F 70% 29.69 in 10.0 mi NW 19.6 mph 29.9 mph N/A   Overcast
10:55 PM 12.2 °F 1.7 °F 3.7 °F 69% 29.71 in 10.0 mi NW 6.9 mph 16.1 mph N/A   Overcast
11:15 PM 11.8 °F -0.7 °F 2.8 °F 67% 29.73 in 10.0 mi NW 9.2 mph - N/A   Overcast
11:35 PM 11.3 °F -2.9 °F 1.6 °F 65% 29.73 in 10.0 mi North 11.5 mph 20.7 mph N/A   Overcast
11:55 PM 11.1 °F -5.7 °F 1.4 °F 65% 29.74 in 7.0 mi NNW 16.1 mph 26.5 mph N/A Snow Light Snow